STARLINK-3145 (49455 NORAD) Tracking and Keplerian Element Data

This shows tracking and keplerian element data for the satellite.

Feedback or suggestion? Click here.




ElementValue
Catalog49455
NameSTARLINK-3145
Epoch Orbit485
Epoch Day340.25001157
Epoch Year2021
RAAN20.5478
Inclination53.2187
Eccentricity0.0002056
Argument of Perigee37.5852
Mean Anonmoly140.0264
Mean Motion15.73269841
Decay Rate-0.00047948
L11 49455U 21104AZ 21340.25001157 -.00047948 00000+0 -33810-3 0 9997
L22 49455 53.2187 20.5478 0002056 37.5852 140.0264 15.73269841 4854

Live tracking and technical data element details for STARLINK-3145 (NORAD 49455). STARLINK-3145 can be tracked NOW for your location showing map with azimuth and elevation plus other details from your city location.

Track the satellite on the map from your city or location and see movement details for azimuth, elevation, latitude, longitude, range, height, and movement on the map or in text.







IsCatalogInMostPopularTable: catalog: 49455, numindb: 1
Update: records affected: 1



GetName: 49455 STARLINK-3145

Hit Count: updated at: Wed, 08 Dec 2021 15:07:14 GMT